Portada
METAR-TAF:

METAR-TAF

Aeropuertos :

Kashmar, Irán

latitud: 35-16-14N, longitud: 58-28-24E, altitud: 1110 m

Observación

El informe se hizo hace 36 minutos, a las 14:00 UTC
Viento 4 kt del sur-sureste
Temperatura 16°C
Humedad 39%
Presión 1017 hPa
Visibilidad 10 km o más
Escasas nubes a una altura de 3500 ft

METAR: OIMQ 281400Z 15004KT 9999 FEW035 16/02 Q1017

Hora: 19:06 (14:36 UTC)


TAF: falta

Observaciones y pronósticos meteorológicos de más de 4000 aeropuertos (mensajes METAR y TAF).

Los puntos amarillos y rojos representan las estaciones disponibles.

Ponga el ratón en el punto deseado para ver el nombre de la estación.

Haga clic para ver las observaciones y los pronósticos meteorológicos.

Para cambiar el mapa : haga clic en los botones verdes con una cruz de color negro para hacer un zoom, en el botón verde con un guión para alejar o en las flechas verdes para mapas adyacentes.


METAR-TAF: